Wind_Speed
28 25 22 16 12 14 17 15 14 19 23 23 21 24 22 19 16 17 19 14 12 12 11 16 16 18 15 14 15 17 14 14 14 14 14 13 13 13 13 13 11 9 7
26 29 26 19 13 13 16 18 20 22 21 22 22 23 23 23 16 19 17 15 14 12 13 16 18 20 17 16 16 16 16 14 12 14 13 14 12 12 11 12 11 8 6
21 28 27 21 15 12 15 21 20 24 24 24 25 25 23 21 18 22 20 17 17 14 14 16 19 16 19 17 18 17 14 13 13 14 12 14 12 12 11 10 9 8 6
19 25 24 22 15 13 13 18 21 26 26 27 26 26 25 25 23 23 22 19 18 18 16 16 21 18 21 20 17 16 16 16 14 16 14 14 11 11 11 10 8 7 5
16 20 23 23 15 12 9 15 17 27 27 28 26 24 24 27 27 21 25 22 19 18 16 15 18 17 21 19 19 17 16 17 16 15 14 13 13 12 11 10 9 8 7
11 16 20 21 15 10 7 10 16 22 24 26 25 24 25 28 31 32 24 23 20 16 16 14 19 19 20 20 17 15 17 13 15 14 14 13 13 11 11 10 10 10 9
11 14 17 19 15 8 8 7 16 17 23 23 27 21 27 22 27 27 26 28 22 18 16 14 19 21 22 21 19 17 17 16 16 13 16 15 13 11 11 12 11 11 10
8 8 12 17 15 6 7 5 7 19 18 24 22 22 22 18 24 27 27 32 26 20 17 14 16 19 21 21 22 19 18 16 17 16 17 16 16 13 12 13 13 11 11
18 5 10 16 13 6 4 4 5 14 22 23 21 19 11 10 20 25 21 20 26 24 19 15 13 13 16 21 21 20 19 18 17 17 17 17 16 14 13 14 14 13 12
17 16 12 15 14 6 4 3 0 10 18 24 24 18 20 16 13 13 29 24 24 25 23 20 16 12 14 13 19 23 21 20 19 17 18 18 15 15 16 15 14 14 14
12 10 9 17 15 9 5 3 5 5 13 25 21 27 23 21 18 15 19 28 24 28 26 23 20 16 14 13 13 18 18 16 16 19 19 19 19 16 17 16 14 13 13
9 7 9 11 13 9 6 3 2 8 6 16 25 28 26 25 23 18 19 30 25 28 29 26 24 21 17 17 14 13 16 17 15 16 18 20 22 21 18 19 18 16 14
7 6 8 8 11 12 5 3 3 4 3 8 17 23 33 30 26 21 21 29 30 26 31 31 28 25 21 19 18 16 16 17 17 17 17 18 21 23 23 21 19 18 17
6 6 6 8 10 11 1 3 4 5 5 5 7 18 24 33 31 28 19 22 23 26 28 29 31 29 26 25 21 15 18 19 18 18 18 17 18 19 25 25 24 20 18
4 6 8 9 11 5 1 3 6 8 3 2 2 12 21 20 26 36 29 23 21 23 29 30 27 30 29 30 29 24 21 19 21 21 20 19 19 19 21 26 26 23 22
6 7 8 9 9 3 3 3 5 7 4 2 4 6 16 16 15 21 30 33 32 31 24 25 28 28 29 33 32 31 27 21 20 21 19 19 20 20 20 22 24 25 24
8 7 6 11 12 2 3 3 5 7 5 6 5 6 13 18 15 15 21 22 24 24 25 31 24 25 29 29 28 33 31 27 22 20 19 18 18 19 20 20 20 20 20
11 9 7 13 16 4 3 3 5 7 8 13 9 7 10 14 20 20 15 16 16 16 18 22 23 22 18 23 27 30 32 32 27 24 23 20 19 20 20 20 20 20 20
11 8 10 13 16 6 4 3 4 5 7 14 15 16 16 12 18 14 10 9 13 22 22 20 22 21 21 24 27 30 30 32 32 28 26 25 23 21 22 24 24 24 24
11 8 11 12 15 9 4 4 4 4 3 3 7 9 7 10 10 13 11 11 9 4 3 6 14 14 11 14 20 27 32 34 34 31 30 29 28 26 25 26 26 28 29
7 7 8 9 13 11 8 5 5 3 2 2 2 4 5 5 3 3 3 6 8 9 6 6 4 5 12 12 13 26 29 36 36 32 32 31 30 29 29 29 30 29 28
4 4 7 9 11 11 11 11 7 5 4 1 0 2 4 6 6 8 7 7 6 7 11 5 2 1 6 3 8 12 24 33 35 35 30 33 32 33 31 33 32 31 28
6 6 9 8 8 9 8 8 9 8 6 3 2 2 2 2 5 6 6 10 7 9 10 10 10 9 9 7 10 10 13 13 16 14 19 23 26 29 30 30 29 25 19
5 4 6 7 7 7 6 6 6 6 6 6 4 2 3 4 5 7 7 6 8 9 12 13 13 13 14 14 12 11 8 8 12 16 16 18 13 11 12 12 18 18 17
2 4 4 5 5 5 5 4 5 5 6 5 4 4 3 4 4 6 9 9 8 9 11 11 15 16 16 17 18 19 15 14 10 9 9 10 16 17 15 15 14 19 18
5 4 5 3 2 2 3 4 5 7 6 5 6 6 5 5 5 6 7 8 11 12 11 12 12 13 15 15 14 18 20 19 17 15 13 10 11 17 13 20 14 16 17
Wind_Direction
327 324 321 303 269 231 221 209 186 194 191 192 207 201 197 201 191 176 187 184 175 186 193 181 182 181 178 179 182 178 179 190 186 173 171 163 163 159 156 149 142 135 124
325 321 318 310 284 240 225 211 200 195 206 195 201 205 205 206 203 192 194 189 181 188 189 189 190 185 188 189 187 185 183 191 188 183 176 166 176 172 166 155 149 143 134
319 322 320 313 292 268 229 219 205 201 205 205 200 207 211 215 209 191 197 197 181 190 197 200 197 198 192 191 193 199 196 199 183 182 184 179 188 179 176 170 161 154 149
311 323 321 319 298 275 248 218 215 204 205 209 199 207 215 215 213 203 197 201 191 190 198 205 205 210 203 195 194 198 207 209 204 185 191 191 198 191 187 184 177 170 171
306 316 320 322 308 279 254 231 214 209 203 208 204 206 213 216 220 214 195 202 198 197 202 202 193 197 190 200 200 211 210 202 207 197 203 204 204 206 202 195 191 190 194
307 306 312 321 317 284 270 251 219 211 203 202 204 214 218 211 219 220 199 200 198 197 203 209 189 196 201 208 215 210 225 228 217 221 212 217 212 211 208 209 208 210 212
299 295 303 315 320 285 279 284 218 210 212 197 209 225 217 220 221 225 221 196 193 188 194 206 202 201 204 209 211 219 214 231 225 237 220 222 222 217 215 216 221 225 227
267 274 308 311 318 293 268 314 210 208 187 198 202 207 191 206 215 195 189 189 190 186 194 191 200 205 206 208 210 215 219 229 224 226 225 226 223 226 223 222 226 234 238
299 20 326 323 317 305 288 349 216 192 192 184 188 196 162 196 204 205 198 196 192 193 197 190 190 205 210 218 222 220 220 220 227 236 228 230 231 228 229 228 230 233 237
339 323 314 320 317 300 281 352 108 180 184 184 195 193 184 178 181 199 214 214 203 202 201 208 199 215 224 226 225 227 230 232 236 231 239 232 232 240 237 239 238 238 238
328 308 307 307 314 291 270 300 81 119 184 185 184 195 201 201 198 207 200 210 218 213 210 214 214 218 231 228 220 216 219 227 236 238 243 240 234 243 242 241 243 238 245
327 298 303 312 321 306 257 248 123 85 134 186 194 193 202 204 200 201 208 202 200 202 213 217 218 220 230 240 227 214 211 224 235 239 243 244 241 243 245 243 246 242 248
329 309 311 308 316 322 242 211 129 114 94 163 196 197 202 208 209 204 218 210 201 204 216 220 223 225 227 242 235 230 225 230 239 242 243 243 243 243 244 241 243 246 249
323 322 307 315 313 319 205 159 157 161 122 95 174 204 208 213 213 207 205 208 198 205 216 227 224 226 229 243 248 247 246 242 241 240 241 240 242 244 240 243 242 242 250
345 359 330 317 325 343 99 143 147 167 161 95 122 198 205 211 223 220 205 203 204 206 217 223 227 233 237 242 247 248 251 250 247 242 244 244 244 246 244 243 249 252 253
10 6 341 341 348 15 61 129 143 157 179 73 13 199 205 206 228 228 219 225 233 237 235 236 241 245 241 242 244 246 249 253 251 243 242 247 248 248 248 246 247 248 252
20 15 359 8 1 53 80 129 140 138 136 74 27 168 196 201 210 227 224 230 236 232 239 245 246 240 246 249 240 240 242 245 241 234 238 245 248 248 247 246 246 247 247
34 30 21 10 4 64 74 121 142 135 116 88 76 137 153 194 216 221 221 221 229 243 239 249 241 244 236 248 249 246 241 239 237 234 238 243 251 249 248 245 244 244 244
49 30 36 21 12 43 72 91 140 143 117 105 95 82 105 131 175 183 192 215 235 240 241 246 251 252 256 254 254 238 230 233 237 238 237 240 244 251 248 248 248 248 249
46 30 39 19 18 32 54 63 95 148 178 140 118 115 99 83 90 116 149 151 156 159 207 261 235 247 255 254 249 238 230 229 233 237 238 242 244 251 252 253 250 250 250
58 39 33 32 29 43 52 58 57 84 131 196 206 144 148 134 152 77 153 150 156 142 115 86 183 214 246 257 259 238 238 233 235 236 243 245 247 252 251 255 254 253 253
50 24 33 30 30 41 59 68 69 65 70 61 83 238 220 213 209 192 207 210 197 220 214 193 329 10 36 21 295 278 240 244 243 232 236 242 246 253 255 258 257 245 245
31 39 38 33 26 31 46 61 69 69 70 49 12 343 303 280 252 248 236 226 244 245 246 240 225 229 248 313 347 329 238 229 224 225 235 251 254 246 256 247 248 243 229
32 44 35 37 28 22 26 34 50 51 57 56 47 16 315 298 293 290 287 274 264 263 262 261 252 259 241 243 266 321 316 289 250 248 241 247 243 213 242 225 210 203 221
340 18 18 29 28 16 13 6 13 14 25 36 30 16 349 338 307 282 279 281 272 276 282 271 268 269 269 274 245 260 280 309 295 301 238 232 208 226 242 227 210 208 222
295 307 327 332 10 24 2 340 318 323 333 2 12 6 359 342 316 307 288 278 272 268 266 273 280 276 278 277 265 250 251 260 264 271 276 266 225 218 194 205 215 216 226
Height
1532 1527 1525 1523 1520 1521 1521 1522 1522 1522 1529 1532 1538 1541 1543 1546 1549 1552 1555 1557 1559 1561 1562 1564 1567 1569 1571 1573 1575 1576 1577 1578 1579 1580 1580 1581 1583 1584 1585 1586 1587 1588 1589
1529 1525 1523 1520 1517 1516 1517 1520 1521 1522 1524 1529 1533 1537 1542 1544 1547 1550 1553 1555 1558 1560 1562 1564 1567 1568 1571 1573 1575 1576 1577 1578 1578 1580 1581 1582 1583 1584 1586 1587 1588 1589 1590
1529 1525 1521 1517 1515 1513 1514 1515 1517 1519 1522 1525 1531 1535 1539 1542 1546 1548 1551 1554 1557 1559 1562 1564 1566 1568 1570 1572 1574 1576 1577 1577 1578 1579 1581 1582 1583 1585 1587 1588 1589 1590 1590
1525 1523 1519 1515 1512 1510 1509 1510 1513 1515 1519 1523 1526 1531 1535 1539 1543 1546 1549 1552 1555 1558 1561 1562 1565 1567 1569 1572 1574 1575 1576 1577 1578 1579 1580 1582 1583 1584 1586 1588 1589 1590 1591
1521 1520 1517 1513 1510 1508 1505 1507 1509 1511 1515 1518 1524 1527 1531 1536 1540 1544 1546 1550 1554 1556 1559 1561 1563 1566 1568 1570 1573 1575 1576 1577 1577 1579 1579 1581 1582 1584 1586 1587 1588 1589 1590
1518 1516 1514 1511 1507 1504 1503 1504 1504 1507 1509 1515 1520 1525 1527 1530 1537 1539 1544 1548 1552 1555 1558 1559 1561 1565 1567 1569 1571 1573 1574 1576 1577 1578 1579 1580 1582 1583 1585 1587 1588 1589 1589
1515 1513 1512 1510 1505 1501 1502 1501 1500 1503 1508 1510 1517 1521 1524 1526 1530 1535 1540 1545 1550 1552 1555 1557 1560 1563 1565 1568 1570 1571 1573 1574 1575 1577 1578 1579 1581 1583 1584 1586 1587 1588 1588
1512 1510 1509 1507 1504 1501 1501 1497 1495 1501 1504 1507 1512 1516 1520 1526 1529 1532 1536 1540 1546 1549 1553 1555 1558 1560 1563 1565 1567 1569 1571 1573 1574 1575 1576 1578 1579 1581 1582 1584 1585 1586 1588
1509 1507 1507 1505 1503 1499 1497 1496 1495 1499 1502 1504 1508 1512 1514 1519 1525 1528 1533 1537 1541 1545 1550 1553 1556 1558 1560 1562 1564 1566 1569 1571 1572 1574 1574 1576 1576 1579 1580 1582 1583 1584 1585
1507 1507 1505 1503 1501 1498 1495 1495 1494 1493 1496 1500 1504 1506 1510 1513 1520 1527 1531 1535 1539 1543 1546 1551 1553 1556 1558 1559 1561 1563 1566 1568 1570 1571 1573 1574 1575 1576 1578 1579 1580 1582 1583
1506 1505 1503 1502 1499 1496 1494 1492 1491 1491 1492 1497 1500 1504 1509 1511 1517 1522 1524 1530 1535 1539 1544 1547 1550 1553 1555 1557 1558 1559 1563 1565 1567 1569 1570 1571 1573 1574 1575 1577 1578 1579 1580
1504 1503 1502 1501 1499 1495 1494 1492 1492 1490 1492 1494 1499 1502 1507 1511 1514 1519 1522 1526 1531 1533 1540 1544 1547 1549 1552 1554 1556 1557 1559 1562 1564 1566 1567 1568 1570 1572 1573 1574 1575 1576 1577
1503 1502 1501 1500 1499 1495 1492 1490 1489 1491 1494 1494 1496 1500 1506 1509 1513 1516 1520 1524 1527 1532 1537 1539 1543 1546 1548 1551 1553 1555 1557 1559 1561 1562 1564 1565 1567 1569 1570 1571 1572 1573 1574
1502 1500 1499 1498 1497 1493 1491 1491 1491 1492 1493 1495 1495 1499 1502 1506 1509 1514 1518 1521 1526 1529 1532 1534 1538 1541 1544 1546 1549 1551 1553 1555 1557 1559 1560 1561 1563 1564 1566 1568 1569 1570 1572
1501 1499 1498 1497 1495 1492 1491 1492 1491 1493 1495 1496 1495 1496 1500 1503 1505 1509 1514 1519 1523 1525 1528 1531 1533 1536 1539 1541 1544 1547 1549 1551 1553 1554 1556 1558 1559 1560 1562 1564 1565 1567 1569
1501 1499 1498 1496 1494 1492 1491 1492 1493 1494 1495 1495 1493 1493 1496 1498 1501 1504 1510 1515 1519 1521 1524 1527 1529 1531 1534 1537 1539 1541 1543 1547 1548 1550 1552 1553 1555 1556 1558 1559 1561 1563 1564
1502 1499 1499 1497 1494 1492 1491 1492 1494 1494 1494 1493 1492 1492 1494 1497 1500 1503 1506 1510 1513 1516 1518 1521 1524 1526 1528 1531 1533 1536 1538 1541 1543 1545 1547 1549 1551 1552 1553 1555 1557 1558 1560
1503 1501 1500 1498 1495 1492 1492 1493 1494 1494 1495 1494 1490 1493 1492 1496 1497 1501 1503 1506 1510 1513 1514 1517 1518 1521 1523 1524 1527 1529 1532 1535 1538 1540 1543 1545 1547 1548 1549 1551 1552 1554 1556
1504 1504 1501 1500 1497 1495 1495 1495 1495 1495 1496 1494 1494 1494 1493 1495 1497 1499 1502 1505 1507 1509 1511 1512 1515 1517 1518 1519 1520 1521 1525 1528 1532 1535 1538 1540 1542 1543 1544 1546 1547 1549 1550
1506 1506 1504 1503 1500 1499 1498 1498 1498 1498 1497 1497 1497 1496 1496 1499 1499 1497 1503 1504 1505 1507 1508 1509 1510 1513 1513 1514 1515 1514 1518 1521 1525 1529 1532 1534 1536 1537 1538 1540 1541 1542 1544
1508 1507 1505 1504 1502 1500 1499 1498 1498 1498 1498 1498 1497 1497 1499 1500 1501 1502 1504 1504 1505 1504 1508 1508 1508 1510 1510 1512 1510 1512 1513 1516 1520 1522 1525 1527 1529 1530 1531 1533 1534 1536 1538
1509 1507 1505 1504 1503 1501 1500 1500 1500 1500 1500 1501 1499 1500 1499 1500 1501 1501 1504 1505 1505 1506 1506 1507 1509 1508 1507 1509 1509 1509 1509 1511 1513 1514 1517 1519 1521 1523 1524 1525 1526 1528 1530
1508 1507 1506 1506 1505 1504 1503 1502 1502 1501 1501 1501 1500 1500 1500 1499 1500 1501 1502 1502 1503 1505 1506 1505 1504 1505 1506 1507 1508 1507 1507 1506 1505 1507 1512 1514 1516 1515 1516 1516 1517 1519 1521
1507 1506 1506 1506 1505 1504 1504 1503 1502 1502 1501 1500 1500 1500 1500 1499 1499 1500 1502 1501 1501 1503 1504 1503 1502 1503 1502 1501 1505 1506 1505 1504 1504 1504 1507 1508 1509 1507 1510 1509 1511 1514 1517
1507 1506 1505 1505 1505 1505 1504 1503 1503 1503 1502 1501 1500 1499 1498 1498 1499 1500 1500 1499 1499 1501 1501 1500 1501 1501 1501 1501 1499 1501 1503 1503 1503 1502 1503 1506 1505 1507 1508 1508 1506 1509 1513
1507 1506 1506 1506 1505 1505 1504 1504 1503 1502 1501 1500 1500 1499 1498 1499 1500 1497 1497 1496 1496 1497 1498 1498 1498 1498 1498 1498 1497 1498 1499 1501 1501 1499 1502 1506 1503 1505 1504 1504 1505 1507 1510